Time,TemperatureF,DewpointF,PressureIn,WindDirection,WindDirectionDegrees,WindSpeedMPH,WindSpeedGustMPH,Humidity,HourlyPrecipIn,Conditions,Clouds,dailyrainin,SoftwareType,DateUTC
2013-03-10 00:00:00,46.2,39.4,30.25,NE,46,5.0,10.0,77,0.00,,,0.00,Wunderground v.1.15,2013-03-10 05:00:00,
2013-03-10 00:01:00,46.2,39.4,30.25,NE,45,7.0,9.0,77,0.00,,,0.00,Wunderground v.1.15,2013-03-10 05:01:00,
2013-03-10 00:07:00,46.3,39.5,30.25,NE,44,4.0,9.0,77,0.00,,,0.00,Wunderground v.1.15,2013-03-10 05:07:00,
2013-03-10 00:12:00,46.3,39.1,30.25,NE,46,5.0,7.0,76,0.00,,,0.00,Wunderground v.1.15,2013-03-10 05:12:00,
2013-03-10 00:17:00,46.3,39.5,30.26,NE,47,5.0,9.0,77,0.00,,,0.00,Wunderground v.1.15,2013-03-10 05:17:00,
2013-03-10 00:23:00,46.4,39.6,30.25,NE,47,6.0,6.0,77,0.00,,,0.00,Wunderground v.1.15,2013-03-10 05:23:00,
2013-03-10 00:29:00,46.3,39.5,30.26,NE,47,7.0,7.0,77,0.00,,,0.00,Wunderground v.1.15,2013-03-10 05:29:00,
2013-03-10 00:35:00,46.4,39.6,30.25,NE,46,6.0,9.0,77,0.00,,,0.00,Wunderground v.1.15,2013-03-10 05:35:00,
2013-03-10 00:40:00,46.4,39.2,30.25,NE,49,7.0,7.0,76,0.00,,,0.00,Wunderground v.1.15,2013-03-10 05:40:00,
2013-03-10 00:46:00,46.4,39.2,30.25,NE,48,5.0,9.0,76,0.00,,,0.00,Wunderground v.1.15,2013-03-10 05:46:00,
2013-03-10 00:51:00,46.4,39.2,30.25,NE,49,6.0,7.0,76,0.00,,,0.00,Wunderground v.1.15,2013-03-10 05:51:00,
2013-03-10 00:57:00,46.6,39.1,30.25,NE,49,10.0,10.0,75,0.00,,,0.00,Wunderground v.1.15,2013-03-10 05:57:00,
2013-03-10 01:03:00,46.6,39.1,30.25,NE,53,11.0,11.0,75,0.00,,,0.00,Wunderground v.1.15,2013-03-10 06:03:00,
2013-03-10 01:08:00,46.6,39.1,30.25,NE,51,7.0,11.0,75,0.00,,,0.00,Wunderground v.1.15,2013-03-10 06:08:00,
2013-03-10 01:14:00,46.6,38.8,30.25,NE,49,6.0,10.0,74,0.00,,,0.00,Wunderground v.1.15,2013-03-10 06:14:00,
2013-03-10 01:20:00,46.6,38.4,30.25,NE,40,6.0,8.0,73,0.00,,,0.00,Wunderground v.1.15,2013-03-10 06:20:00,
2013-03-10 01:25:00,46.7,38.9,30.25,NE,43,7.0,8.0,74,0.00,,,0.00,Wunderground v.1.15,2013-03-10 06:25:00,
2013-03-10 01:31:00,46.6,38.8,30.25,NE,39,8.0,8.0,74,0.00,,,0.00,Wunderground v.1.15,2013-03-10 06:31:00,
2013-03-10 01:37:00,46.6,38.8,30.25,NE,40,7.0,9.0,74,0.00,,,0.00,Wunderground v.1.15,2013-03-10 06:37:00,
2013-03-10 01:42:00,46.7,38.9,30.25,NE,43,6.0,11.0,74,0.00,,,0.00,Wunderground v.1.15,2013-03-10 06:42:00,
2013-03-10 01:48:00,46.7,39.2,30.25,NE,39,6.0,12.0,75,0.00,,,0.00,Wunderground v.1.15,2013-03-10 06:48:00,
2013-03-10 01:54:00,46.7,38.9,30.24,NE,39,5.0,11.0,74,0.00,,,0.00,Wunderground v.1.15,2013-03-10 06:54:00,
2013-03-10 01:59:00,46.7,38.9,30.24,NE,38,9.0,11.0,74,0.00,,,0.00,Wunderground v.1.15,2013-03-10 06:59:00,
2013-03-10 03:04:00,46.8,38.6,30.24,NE,37,7.0,11.0,73,0.00,,,0.00,Wunderground v.1.15,2013-03-10 07:04:00,
2013-03-10 03:09:00,46.9,38.7,30.24,NE,36,6.0,11.0,73,0.00,,,0.00,Wunderground v.1.15,2013-03-10 07:09:00,
2013-03-10 03:14:00,46.8,38.9,30.24,NE,38,7.0,10.0,74,0.00,,,0.00,Wunderground v.1.15,2013-03-10 07:14:00,
2013-03-10 03:19:00,46.8,38.9,30.24,NE,34,9.0,12.0,74,0.00,,,0.00,Wunderground v.1.15,2013-03-10 07:19:00,
2013-03-10 03:24:00,46.8,38.6,30.24,NE,35,5.0,9.0,73,0.00,,,0.00,Wunderground v.1.15,2013-03-10 07:24:00,
2013-03-10 03:29:00,46.8,38.9,30.24,NE,36,6.0,12.0,74,0.00,,,0.00,Wunderground v.1.15,2013-03-10 07:29:00,
2013-03-10 03:34:00,46.8,38.2,30.24,NE,36,7.0,11.0,72,0.00,,,0.00,Wunderground v.1.15,2013-03-10 07:34:00,
2013-03-10 03:39:00,46.8,38.6,30.24,NE,36,5.0,11.0,73,0.00,,,0.00,Wunderground v.1.15,2013-03-10 07:39:00,
2013-03-10 03:44:00,46.8,37.9,30.23,NE,42,10.0,12.0,71,0.00,,,0.00,Wunderground v.1.15,2013-03-10 07:44:00,
2013-03-10 03:49:00,46.9,37.6,30.23,NE,38,6.0,12.0,70,0.00,,,0.00,Wunderground v.1.15,2013-03-10 07:49:00,
2013-03-10 03:54:00,46.8,37.5,30.23,NE,37,7.0,10.0,70,0.00,,,0.00,Wunderground v.1.15,2013-03-10 07:54:00,
2013-03-10 03:59:00,46.8,36.8,30.23,NE,42,5.0,13.0,68,0.00,,,0.00,Wunderground v.1.15,2013-03-10 07:59:00,
2013-03-10 04:04:00,46.8,37.2,30.23,NE,40,7.0,10.0,69,0.00,,,0.00,Wunderground v.1.15,2013-03-10 08:04:00,
2013-03-10 04:09:00,46.8,37.5,30.23,NE,41,5.0,10.0,70,0.00,,,0.00,Wunderground v.1.15,2013-03-10 08:09:00,
2013-03-10 04:14:00,46.7,36.7,30.23,NE,39,7.0,11.0,68,0.00,,,0.00,Wunderground v.1.15,2013-03-10 08:14:00,
2013-03-10 04:19:00,46.7,36.3,30.23,NE,39,8.0,11.0,67,0.00,,,0.00,Wunderground v.1.15,2013-03-10 08:19:00,
2013-03-10 04:24:00,46.8,35.3,30.24,NE,38,8.0,13.0,64,0.00,,,0.00,Wunderground v.1.15,2013-03-10 08:24:00,
2013-03-10 04:29:00,46.9,35.4,30.23,NE,34,7.0,13.0,64,0.00,,,0.00,Wunderground v.1.15,2013-03-10 08:29:00,
2013-03-10 04:34:00,46.8,34.0,30.23,NE,38,7.0,14.0,61,0.00,,,0.00,Wunderground v.1.15,2013-03-10 08:34:00,
2013-03-10 04:39:00,46.7,34.8,30.23,NE,42,6.0,14.0,63,0.00,,,0.00,Wunderground v.1.15,2013-03-10 08:39:00,
2013-03-10 04:44:00,46.6,34.3,30.23,NE,37,5.0,12.0,62,0.00,,,0.00,Wunderground v.1.15,2013-03-10 08:44:00,
2013-03-10 04:49:00,46.4,35.3,30.23,NE,45,5.0,12.0,65,0.00,,,0.00,Wunderground v.1.15,2013-03-10 08:49:00,
2013-03-10 04:55:00,46.3,35.6,30.23,NE,46,6.0,10.0,66,0.00,,,0.00,Wunderground v.1.15,2013-03-10 08:55:00,
2013-03-10 05:00:00,46.1,35.7,30.24,NE,46,7.0,10.0,67,0.00,,,0.00,Wunderground v.1.15,2013-03-10 09:00:00,
2013-03-10 05:05:00,46.1,36.1,30.24,NE,46,7.0,9.0,68,0.00,,,0.00,Wunderground v.1.15,2013-03-10 09:05:00,
2013-03-10 05:10:00,46.0,36.0,30.24,NE,45,7.0,7.0,68,0.00,,,0.00,Wunderground v.1.15,2013-03-10 09:10:00,
2013-03-10 05:15:00,46.0,36.8,30.24,NE,45,5.0,8.0,70,0.00,,,0.00,Wunderground v.1.15,2013-03-10 09:15:00,
2013-03-10 05:20:00,46.0,37.1,30.24,NE,43,6.0,6.0,71,0.00,,,0.00,Wunderground v.1.15,2013-03-10 09:20:00,
2013-03-10 05:25:00,45.9,37.4,30.24,NE,43,6.0,7.0,72,0.00,,,0.00,Wunderground v.1.15,2013-03-10 09:25:00,
2013-03-10 05:30:00,45.7,36.8,30.24,NE,41,6.0,7.0,71,0.00,,,0.00,Wunderground v.1.15,2013-03-10 09:30:00,
2013-03-10 05:35:00,45.8,37.3,30.24,NE,40,6.0,9.0,72,0.00,,,0.00,Wunderground v.1.15,2013-03-10 09:35:00,
2013-03-10 05:40:00,45.8,38.0,30.24,NE,40,6.0,6.0,74,0.00,,,0.00,Wunderground v.1.15,2013-03-10 09:40:00,
2013-03-10 05:45:00,45.6,37.8,30.24,NE,40,6.0,11.0,74,0.00,,,0.00,Wunderground v.1.15,2013-03-10 09:45:00,
2013-03-10 05:50:00,45.5,38.0,30.23,NE,44,7.0,7.0,75,0.00,,,0.00,Wunderground v.1.15,2013-03-10 09:50:00,
2013-03-10 05:55:00,45.4,37.9,30.23,NE,44,7.0,11.0,75,0.00,,,0.00,Wunderground v.1.15,2013-03-10 09:55:00,
2013-03-10 06:00:00,45.4,38.3,30.23,NE,45,7.0,7.0,76,0.00,,,0.00,Wunderground v.1.15,2013-03-10 10:00:00,
2013-03-10 06:05:00,45.3,38.2,30.24,NE,44,10.0,10.0,76,0.00,,,0.00,Wunderground v.1.15,2013-03-10 10:05:00,
2013-03-10 06:10:00,45.3,38.2,30.24,NE,46,7.0,9.0,76,0.00,,,0.00,Wunderground v.1.15,2013-03-10 10:10:00,
2013-03-10 06:15:00,45.2,38.4,30.24,NE,51,7.0,11.0,77,0.00,,,0.00,Wunderground v.1.15,2013-03-10 10:15:00,
2013-03-10 06:20:00,45.1,38.3,30.24,NE,51,9.0,11.0,77,0.00,,,0.00,Wunderground v.1.15,2013-03-10 10:20:00,
2013-03-10 06:25:00,45.1,38.6,30.24,NE,49,9.0,11.0,78,0.00,,,0.00,Wunderground v.1.15,2013-03-10 10:25:00,
2013-03-10 06:30:00,45.1,38.6,30.24,NE,51,5.0,8.0,78,0.00,,,0.00,Wunderground v.1.15,2013-03-10 10:30:00,
2013-03-10 06:35:00,45.1,39.0,30.24,NE,53,8.0,12.0,79,0.00,,,0.00,Wunderground v.1.15,2013-03-10 10:35:00,
2013-03-10 06:40:00,45.1,39.0,30.24,NE,53,7.0,7.0,79,0.00,,,0.00,Wunderground v.1.15,2013-03-10 10:40:00,
2013-03-10 06:45:00,45.1,39.0,30.25,NE,51,9.0,11.0,79,0.00,,,0.00,Wunderground v.1.15,2013-03-10 10:45:00,
2013-03-10 06:50:00,45.1,39.0,30.25,NE,51,8.0,10.0,79,0.00,,,0.00,Wunderground v.1.15,2013-03-10 10:50:00,
2013-03-10 06:55:00,45.1,39.3,30.25,NE,49,7.0,10.0,80,0.00,,,0.00,Wunderground v.1.15,2013-03-10 10:55:00,
2013-03-10 07:00:00,45.1,39.3,30.25,NE,48,6.0,7.0,80,0.00,,,0.00,Wunderground v.1.15,2013-03-10 11:00:00,
2013-03-10 07:05:00,45.1,39.3,30.25,NE,48,4.0,10.0,80,0.00,,,0.00,Wunderground v.1.15,2013-03-10 11:05:00,
2013-03-10 07:10:00,45.0,39.5,30.25,NE,46,6.0,7.0,81,0.00,,,0.00,Wunderground v.1.15,2013-03-10 11:10:00,
2013-03-10 07:15:00,45.0,39.5,30.25,NE,46,4.0,9.0,81,0.00,,,0.00,Wunderground v.1.15,2013-03-10 11:15:00,
2013-03-10 07:20:00,45.0,39.5,30.25,NE,47,4.0,6.0,81,0.00,,,0.00,Wunderground v.1.15,2013-03-10 11:20:00,
2013-03-10 07:26:00,45.0,39.8,30.25,NE,47,3.0,8.0,82,0.00,,,0.00,Wunderground v.1.15,2013-03-10 11:26:00,
2013-03-10 07:31:00,44.9,39.7,30.26,NE,47,6.0,7.0,82,0.00,,,0.00,Wunderground v.1.15,2013-03-10 11:31:00,
2013-03-10 07:36:00,45.0,40.1,30.25,NE,47,4.0,9.0,83,0.00,,,0.00,Wunderground v.1.15,2013-03-10 11:36:00,
2013-03-10 07:41:00,45.1,40.2,30.26,NE,48,4.0,5.0,83,0.00,,,0.00,Wunderground v.1.15,2013-03-10 11:41:00,
2013-03-10 07:46:00,45.1,40.2,30.26,NE,49,6.0,9.0,83,0.00,,,0.00,Wunderground v.1.15,2013-03-10 11:46:00,
2013-03-10 07:51:00,45.3,40.7,30.26,NE,49,4.0,5.0,84,0.00,,,0.00,Wunderground v.1.15,2013-03-10 11:51:00,
2013-03-10 07:56:00,45.4,40.8,30.26,NE,49,4.0,9.0,84,0.00,,,0.00,Wunderground v.1.15,2013-03-10 11:56:00,
2013-03-10 08:01:00,45.6,41.0,30.26,NE,49,5.0,7.0,84,0.00,,,0.00,Wunderground v.1.15,2013-03-10 12:01:00,
2013-03-10 08:06:00,45.8,41.2,30.26,NE,49,3.0,9.0,84,0.00,,,0.00,Wunderground v.1.15,2013-03-10 12:06:00,
2013-03-10 08:11:00,46.0,41.4,30.25,NE,49,5.0,6.0,84,0.00,,,0.00,Wunderground v.1.15,2013-03-10 12:11:00,
2013-03-10 08:16:00,46.2,41.6,30.26,NE,49,4.0,8.0,84,0.00,,,0.00,Wunderground v.1.15,2013-03-10 12:16:00,
2013-03-10 08:21:00,46.4,41.8,30.26,NE,49,6.0,7.0,84,0.00,,,0.00,Wunderground v.1.15,2013-03-10 12:21:00,
2013-03-10 08:26:00,46.5,41.9,30.26,NE,49,6.0,7.0,84,0.00,,,0.00,Wunderground v.1.15,2013-03-10 12:26:00,
2013-03-10 08:31:00,46.7,42.1,30.26,NE,49,6.0,8.0,84,0.00,,,0.00,Wunderground v.1.15,2013-03-10 12:31:00,
2013-03-10 08:36:00,46.9,42.3,30.26,NE,56,6.0,10.0,84,0.00,,,0.00,Wunderground v.1.15,2013-03-10 12:36:00,
2013-03-10 08:41:00,47.0,42.4,30.27,NE,54,7.0,9.0,84,0.00,,,0.00,Wunderground v.1.15,2013-03-10 12:41:00,
2013-03-10 08:46:00,47.1,42.2,30.27,NE,52,6.0,11.0,83,0.00,,,0.00,Wunderground v.1.15,2013-03-10 12:46:00,
2013-03-10 08:51:00,47.1,42.2,30.27,NE,44,10.0,11.0,83,0.00,,,0.00,Wunderground v.1.15,2013-03-10 12:51:00,
2013-03-10 08:56:00,47.2,42.3,30.27,NE,48,9.0,12.0,83,0.00,,,0.00,Wunderground v.1.15,2013-03-10 12:56:00,
2013-03-10 09:02:00,47.3,42.4,30.27,NE,46,9.0,10.0,83,0.00,,,0.00,Wunderground v.1.15,2013-03-10 13:02:00,
2013-03-10 09:07:00,47.3,42.4,30.26,NE,55,9.0,13.0,83,0.00,,,0.00,Wunderground v.1.15,2013-03-10 13:07:00,
2013-03-10 09:12:00,47.3,42.1,30.26,NE,51,11.0,13.0,82,0.00,,,0.00,Wunderground v.1.15,2013-03-10 13:12:00,
2013-03-10 09:17:00,47.3,42.4,30.26,NE,49,9.0,13.0,83,0.00,,,0.00,Wunderground v.1.15,2013-03-10 13:17:00,
2013-03-10 09:22:00,47.3,42.4,30.26,NE,55,11.0,13.0,83,0.00,,,0.00,Wunderground v.1.15,2013-03-10 13:22:00,
2013-03-10 09:27:00,47.3,42.4,30.26,NE,51,9.0,13.0,83,0.00,,,0.00,Wunderground v.1.15,2013-03-10 13:27:00,
2013-03-10 09:32:00,47.4,42.5,30.26,NE,44,10.0,13.0,83,0.00,,,0.00,Wunderground v.1.15,2013-03-10 13:32:00,
2013-03-10 09:37:00,47.4,42.2,30.26,NE,55,10.0,13.0,82,0.00,,,0.00,Wunderground v.1.15,2013-03-10 13:37:00,
2013-03-10 09:42:00,47.4,42.5,30.27,NE,47,8.0,13.0,83,0.00,,,0.00,Wunderground v.1.15,2013-03-10 13:42:00,
2013-03-10 09:47:00,47.6,42.7,30.27,NE,43,10.0,13.0,83,0.00,,,0.00,Wunderground v.1.15,2013-03-10 13:47:00,
2013-03-10 09:52:00,47.7,42.8,30.27,ENE,57,6.0,11.0,83,0.00,,,0.00,Wunderground v.1.15,2013-03-10 13:52:00,
2013-03-10 09:57:00,47.7,42.5,30.27,NE,46,7.0,12.0,82,0.00,,,0.00,Wunderground v.1.15,2013-03-10 13:57:00,
2013-03-10 10:02:00,47.6,42.4,30.27,NE,45,8.0,13.0,82,0.00,,,0.00,Wunderground v.1.15,2013-03-10 14:02:00,
2013-03-10 10:07:00,47.5,42.6,30.28,NE,44,12.0,13.0,83,0.00,,,0.00,Wunderground v.1.15,2013-03-10 14:07:00,
2013-03-10 10:12:00,47.5,42.6,30.28,NE,46,9.0,12.0,83,0.00,,,0.00,Wunderground v.1.15,2013-03-10 14:12:00,
2013-03-10 10:17:00,47.6,42.7,30.28,NE,49,4.0,13.0,83,0.00,,,0.00,Wunderground v.1.15,2013-03-10 14:17:00,
2013-03-10 10:22:00,47.7,42.8,30.28,NE,46,6.0,11.0,83,0.00,,,0.00,Wunderground v.1.15,2013-03-10 14:22:00,
2013-03-10 10:27:00,47.7,42.8,30.28,NE,41,9.0,13.0,83,0.00,,,0.00,Wunderground v.1.15,2013-03-10 14:27:00,
2013-03-10 10:32:00,47.7,42.8,30.28,NE,53,9.0,12.0,83,0.00,,,0.00,Wunderground v.1.15,2013-03-10 14:32:00,
2013-03-10 10:37:00,47.9,43.3,30.27,NE,42,4.0,12.0,84,0.00,,,0.00,Wunderground v.1.15,2013-03-10 14:37:00,
2013-03-10 10:42:00,48.1,43.2,30.27,NE,41,4.0,12.0,83,0.00,,,0.00,Wunderground v.1.15,2013-03-10 14:42:00,
2013-03-10 10:47:00,48.1,43.2,30.28,ENE,59,7.0,13.0,83,0.00,,,0.00,Wunderground v.1.15,2013-03-10 14:47:00,
2013-03-10 10:52:00,48.0,43.1,30.28,NE,53,11.0,11.0,83,0.00,,,0.00,Wunderground v.1.15,2013-03-10 14:52:00,
2013-03-10 10:57:00,47.9,43.0,30.27,NE,51,10.0,13.0,83,0.00,,,0.00,Wunderground v.1.15,2013-03-10 14:57:00,
2013-03-10 11:02:00,48.1,43.5,30.28,NE,44,10.0,11.0,84,0.00,,,0.00,Wunderground v.1.15,2013-03-10 15:02:00,
2013-03-10 11:07:00,48.2,43.6,30.28,NE,45,10.0,11.0,84,0.00,,,0.00,Wunderground v.1.15,2013-03-10 15:07:00,
2013-03-10 11:12:00,48.2,43.3,30.28,NE,54,9.0,13.0,83,0.00,,,0.00,Wunderground v.1.15,2013-03-10 15:12:00,
2013-03-10 11:18:00,48.2,43.3,30.28,NE,54,10.0,13.0,83,0.00,,,0.00,Wunderground v.1.15,2013-03-10 15:18:00,
2013-03-10 11:23:00,48.3,43.7,30.28,NE,42,10.0,12.0,84,0.00,,,0.00,Wunderground v.1.15,2013-03-10 15:23:00,
2013-03-10 11:28:00,48.3,43.7,30.28,NE,40,4.0,14.0,84,0.00,,,0.00,Wunderground v.1.15,2013-03-10 15:28:00,
2013-03-10 11:33:00,48.3,43.7,30.28,NE,42,10.0,11.0,84,0.00,,,0.00,Wunderground v.1.15,2013-03-10 15:33:00,
2013-03-10 11:38:00,48.3,43.7,30.28,NE,53,8.0,11.0,84,0.00,,,0.00,Wunderground v.1.15,2013-03-10 15:38:00,
2013-03-10 11:43:00,48.4,44.1,30.28,NE,42,5.0,13.0,85,0.00,,,0.00,Wunderground v.1.15,2013-03-10 15:43:00,
2013-03-10 11:48:00,48.2,43.9,30.28,NE,44,9.0,14.0,85,0.00,,,0.00,Wunderground v.1.15,2013-03-10 15:48:00,
2013-03-10 11:53:00,48.2,43.9,30.29,NE,42,9.0,13.0,85,0.00,,,0.00,Wunderground v.1.15,2013-03-10 15:53:00,
2013-03-10 11:58:00,48.1,43.5,30.28,NE,43,8.0,13.0,84,0.00,,,0.00,Wunderground v.1.15,2013-03-10 15:58:00,
2013-03-10 12:03:00,48.3,44.0,30.28,NE,38,12.0,13.0,85,0.00,,,0.00,Wunderground v.1.15,2013-03-10 16:03:00,
2013-03-10 12:08:00,48.3,44.0,30.29,NE,55,11.0,14.0,85,0.00,,,0.00,Wunderground v.1.15,2013-03-10 16:08:00,
2013-03-10 12:13:00,48.3,44.0,30.28,NE,42,11.0,14.0,85,0.00,,,0.00,Wunderground v.1.15,2013-03-10 16:13:00,
2013-03-10 12:18:00,48.4,44.1,30.28,NE,39,14.0,14.0,85,0.00,,,0.00,Wunderground v.1.15,2013-03-10 16:18:00,
2013-03-10 12:23:00,48.4,44.1,30.29,NE,44,9.0,14.0,85,0.00,,,0.00,Wunderground v.1.15,2013-03-10 16:23:00,
2013-03-10 12:28:00,48.2,44.2,30.29,NE,48,12.0,15.0,86,0.00,,,0.00,Wunderground v.1.15,2013-03-10 16:28:00,
2013-03-10 12:33:00,48.4,44.1,30.29,NE,52,14.0,14.0,85,0.00,,,0.00,Wunderground v.1.15,2013-03-10 16:33:00,
2013-03-10 12:38:00,48.6,44.3,30.29,NE,53,12.0,14.0,85,0.00,,,0.00,Wunderground v.1.15,2013-03-10 16:38:00,
2013-03-10 12:43:00,48.7,44.7,30.29,ENE,67,10.0,12.0,86,0.00,,,0.00,Wunderground v.1.15,2013-03-10 16:43:00,
2013-03-10 12:48:00,49.0,44.7,30.28,NE,50,11.0,14.0,85,0.00,,,0.00,Wunderground v.1.15,2013-03-10 16:48:00,
2013-03-10 12:53:00,49.2,44.9,30.28,ENE,66,9.0,12.0,85,0.00,,,0.00,Wunderground v.1.15,2013-03-10 16:53:00,
2013-03-10 12:58:00,48.9,44.6,30.28,NE,40,12.0,16.0,85,0.00,,,0.00,Wunderground v.1.15,2013-03-10 16:58:00,
2013-03-10 13:03:00,49.0,44.7,30.28,ENE,59,12.0,14.0,85,0.00,,,0.00,Wunderground v.1.15,2013-03-10 17:03:00,
2013-03-10 13:08:00,48.9,44.6,30.28,ENE,61,10.0,14.0,85,0.00,,,0.00,Wunderground v.1.15,2013-03-10 17:08:00,
2013-03-10 13:13:00,49.2,45.2,30.28,NE,53,7.0,11.0,86,0.00,,,0.00,Wunderground v.1.15,2013-03-10 17:13:00,
2013-03-10 13:18:00,49.4,45.4,30.28,NE,49,11.0,12.0,86,0.00,,,0.00,Wunderground v.1.15,2013-03-10 17:18:00,
2013-03-10 13:23:00,49.4,45.1,30.28,ENE,62,6.0,11.0,85,0.00,,,0.00,Wunderground v.1.15,2013-03-10 17:23:00,
2013-03-10 13:28:00,49.2,45.2,30.28,NE,43,9.0,13.0,86,0.00,,,0.00,Wunderground v.1.15,2013-03-10 17:28:00,
2013-03-10 13:34:00,49.4,45.4,30.27,NE,55,7.0,11.0,86,0.00,,,0.00,Wunderground v.1.15,2013-03-10 17:34:00,
2013-03-10 13:39:00,49.6,45.6,30.28,NE,53,10.0,12.0,86,0.00,,,0.00,Wunderground v.1.15,2013-03-10 17:39:00,
2013-03-10 13:44:00,49.5,45.5,30.28,NE,44,9.0,13.0,86,0.00,,,0.00,Wunderground v.1.15,2013-03-10 17:44:00,
2013-03-10 13:49:00,49.4,45.4,30.28,ENE,62,6.0,14.0,86,0.00,,,0.00,Wunderground v.1.15,2013-03-10 17:49:00,
2013-03-10 13:54:00,49.4,45.4,30.28,NE,44,10.0,12.0,86,0.00,,,0.00,Wunderground v.1.15,2013-03-10 17:54:00,
2013-03-10 13:59:00,49.3,45.3,30.27,NE,53,7.0,12.0,86,0.00,,,0.00,Wunderground v.1.15,2013-03-10 17:59:00,
2013-03-10 14:04:00,49.4,45.4,30.27,NE,36,12.0,12.0,86,0.00,,,0.00,Wunderground v.1.15,2013-03-10 18:04:00,
2013-03-10 14:09:00,49.4,45.4,30.27,NE,39,7.0,12.0,86,0.00,,,0.00,Wunderground v.1.15,2013-03-10 18:09:00,
2013-03-10 14:14:00,49.5,45.5,30.27,NE,45,5.0,12.0,86,0.00,,,0.00,Wunderground v.1.15,2013-03-10 18:14:00,
2013-03-10 14:19:00,49.5,45.5,30.27,NE,52,10.0,13.0,86,0.00,,,0.00,Wunderground v.1.15,2013-03-10 18:19:00,
2013-03-10 14:24:00,49.5,45.5,30.27,NE,43,6.0,13.0,86,0.00,,,0.00,Wunderground v.1.15,2013-03-10 18:24:00,
2013-03-10 14:29:00,49.6,45.9,30.27,NE,42,7.0,13.0,87,0.00,,,0.00,Wunderground v.1.15,2013-03-10 18:29:00,
2013-03-10 14:34:00,49.7,46.0,30.26,NE,53,10.0,12.0,87,0.00,,,0.00,Wunderground v.1.15,2013-03-10 18:34:00,
2013-03-10 14:39:00,49.7,46.0,30.26,NE,41,6.0,13.0,87,0.00,,,0.00,Wunderground v.1.15,2013-03-10 18:39:00,
2013-03-10 14:44:00,49.9,46.2,30.26,NE,55,6.0,12.0,87,0.00,,,0.00,Wunderground v.1.15,2013-03-10 18:44:00,
2013-03-10 14:49:00,50.2,46.5,30.26,NE,53,6.0,12.0,87,0.00,,,0.00,Wunderground v.1.15,2013-03-10 18:49:00,
2013-03-10 14:54:00,50.1,46.1,30.25,NE,46,10.0,14.0,86,0.00,,,0.00,Wunderground v.1.15,2013-03-10 18:54:00,
2013-03-10 14:59:00,50.2,46.5,30.25,NE,46,11.0,14.0,87,0.00,,,0.00,Wunderground v.1.15,2013-03-10 18:59:00,
2013-03-10 15:04:00,50.3,46.6,30.25,NE,40,11.0,13.0,87,0.00,,,0.00,Wunderground v.1.15,2013-03-10 19:04:00,
2013-03-10 15:09:00,50.4,46.7,30.25,ENE,57,11.0,13.0,87,0.00,,,0.00,Wunderground v.1.15,2013-03-10 19:09:00,
2013-03-10 15:15:00,50.4,46.4,30.24,NE,55,10.0,14.0,86,0.00,,,0.00,Wunderground v.1.15,2013-03-10 19:15:00,
2013-03-10 15:20:00,50.6,46.6,30.24,NE,48,11.0,14.0,86,0.00,,,0.00,Wunderground v.1.15,2013-03-10 19:20:00,
2013-03-10 15:25:00,50.7,46.7,30.24,NE,53,10.0,14.0,86,0.00,,,0.00,Wunderground v.1.15,2013-03-10 19:25:00,
2013-03-10 15:30:00,50.8,46.8,30.24,ENE,58,12.0,14.0,86,0.00,,,0.00,Wunderground v.1.15,2013-03-10 19:30:00,
2013-03-10 15:35:00,50.9,46.9,30.24,NE,54,13.0,13.0,86,0.00,,,0.00,Wunderground v.1.15,2013-03-10 19:35:00,
2013-03-10 15:40:00,51.0,47.0,30.24,NE,55,11.0,11.0,86,0.00,,,0.00,Wunderground v.1.15,2013-03-10 19:40:00,
2013-03-10 15:45:00,50.9,46.6,30.24,NE,51,10.0,15.0,85,0.00,,,0.00,Wunderground v.1.15,2013-03-10 19:45:00,
2013-03-10 15:50:00,50.9,46.9,30.23,NE,49,10.0,11.0,86,0.00,,,0.00,Wunderground v.1.15,2013-03-10 19:50:00,
2013-03-10 15:55:00,51.3,47.3,30.23,ENE,59,7.0,13.0,86,0.00,,,0.00,Wunderground v.1.15,2013-03-10 19:55:00,
2013-03-10 16:00:00,51.5,47.5,30.23,ENE,66,9.0,10.0,86,0.00,,,0.00,Wunderground v.1.15,2013-03-10 20:00:00,
2013-03-10 16:05:00,51.6,47.2,30.24,ENE,61,11.0,15.0,85,0.00,,,0.00,Wunderground v.1.15,2013-03-10 20:05:00,
2013-03-10 16:10:00,51.8,47.4,30.24,ENE,62,8.0,12.0,85,0.00,,,0.00,Wunderground v.1.15,2013-03-10 20:10:00,
2013-03-10 16:15:00,51.8,47.4,30.24,ENE,64,8.0,14.0,85,0.00,,,0.00,Wunderground v.1.15,2013-03-10 20:15:00,
2013-03-10 16:20:00,51.9,47.5,30.24,ENE,73,10.0,11.0,85,0.00,,,0.00,Wunderground v.1.15,2013-03-10 20:20:00,
2013-03-10 16:25:00,51.8,47.4,30.24,ENE,74,5.0,11.0,85,0.00,,,0.00,Wunderground v.1.15,2013-03-10 20:25:00,
2013-03-10 16:30:00,51.8,47.4,30.24,NE,55,6.0,10.0,85,0.00,,,0.00,Wunderground v.1.15,2013-03-10 20:30:00,
2013-03-10 16:35:00,51.6,47.2,30.24,ENE,70,6.0,13.0,85,0.00,,,0.00,Wunderground v.1.15,2013-03-10 20:35:00,
2013-03-10 16:40:00,51.5,47.5,30.24,ENE,59,4.0,11.0,86,0.00,,,0.00,Wunderground v.1.15,2013-03-10 20:40:00,
2013-03-10 16:45:00,51.6,47.5,30.25,ENE,60,3.0,11.0,86,0.00,,,0.00,Wunderground v.1.15,2013-03-10 20:45:00,
2013-03-10 16:50:00,51.6,47.5,30.25,ENE,71,8.0,11.0,86,0.00,,,0.00,Wunderground v.1.15,2013-03-10 20:50:00,
2013-03-10 16:55:00,51.4,47.4,30.25,NE,54,6.0,13.0,86,0.00,,,0.00,Wunderground v.1.15,2013-03-10 20:55:00,
2013-03-10 17:01:00,51.6,47.5,30.25,ENE,67,7.0,7.0,86,0.00,,,0.00,Wunderground v.1.15,2013-03-10 21:01:00,
2013-03-10 17:06:00,51.5,47.5,30.24,ENE,73,7.0,13.0,86,0.00,,,0.00,Wunderground v.1.15,2013-03-10 21:06:00,
2013-03-10 17:11:00,51.5,47.5,30.24,ENE,62,6.0,8.0,86,0.00,,,0.00,Wunderground v.1.15,2013-03-10 21:11:00,
2013-03-10 17:16:00,51.6,47.5,30.24,ENE,59,6.0,12.0,86,0.00,,,0.00,Wunderground v.1.15,2013-03-10 21:16:00,
2013-03-10 17:21:00,51.5,47.5,30.24,NE,53,8.0,12.0,86,0.00,,,0.00,Wunderground v.1.15,2013-03-10 21:21:00,
2013-03-10 17:26:00,51.3,47.3,30.24,ENE,67,7.0,12.0,86,0.00,,,0.00,Wunderground v.1.15,2013-03-10 21:26:00,
2013-03-10 17:31:00,51.4,47.4,30.23,ENE,76,11.0,11.0,86,0.00,,,0.00,Wunderground v.1.15,2013-03-10 21:31:00,
2013-03-10 17:36:00,51.4,47.4,30.23,ENE,71,5.0,11.0,86,0.00,,,0.00,Wunderground v.1.15,2013-03-10 21:36:00,
2013-03-10 17:41:00,51.4,47.7,30.24,ENE,70,6.0,6.0,87,0.00,,,0.00,Wunderground v.1.15,2013-03-10 21:41:00,
2013-03-10 17:46:00,51.3,47.6,30.24,ENE,63,10.0,10.0,87,0.00,,,0.00,Wunderground v.1.15,2013-03-10 21:46:00,
2013-03-10 17:51:00,51.2,47.5,30.24,ENE,59,9.0,10.0,87,0.00,,,0.00,Wunderground v.1.15,2013-03-10 21:51:00,
2013-03-10 17:56:00,51.0,47.3,30.24,ENE,57,10.0,14.0,87,0.00,,,0.00,Wunderground v.1.15,2013-03-10 21:56:00,
2013-03-10 18:01:00,50.9,47.2,30.24,ENE,76,7.0,11.0,87,0.00,,,0.00,Wunderground v.1.15,2013-03-10 22:01:00,
2013-03-10 18:06:00,50.8,47.1,30.24,ENE,67,5.0,12.0,87,0.00,,,0.00,Wunderground v.1.15,2013-03-10 22:06:00,
2013-03-10 18:11:00,50.7,47.3,30.24,ENE,62,9.0,11.0,88,0.00,,,0.00,Wunderground v.1.15,2013-03-10 22:11:00,
2013-03-10 18:16:00,50.7,47.3,30.24,ENE,63,5.0,11.0,88,0.00,,,0.00,Wunderground v.1.15,2013-03-10 22:16:00,
2013-03-10 18:22:00,50.5,47.1,30.24,ENE,61,6.0,9.0,88,0.00,,,0.00,Wunderground v.1.15,2013-03-10 22:22:00,
2013-03-10 18:27:00,50.3,46.9,30.25,ENE,61,7.0,10.0,88,0.00,,,0.00,Wunderground v.1.15,2013-03-10 22:27:00,
2013-03-10 18:32:00,50.1,47.0,30.24,ENE,63,3.0,9.0,89,0.00,,,0.00,Wunderground v.1.15,2013-03-10 22:32:00,
2013-03-10 18:37:00,50.0,46.9,30.25,ENE,63,4.0,9.0,89,0.00,,,0.00,Wunderground v.1.15,2013-03-10 22:37:00,
2013-03-10 18:42:00,49.9,46.8,30.24,ENE,64,5.0,10.0,89,0.00,,,0.00,Wunderground v.1.15,2013-03-10 22:42:00,
2013-03-10 18:47:00,49.9,47.1,30.25,ENE,64,7.0,10.0,90,0.00,,,0.00,Wunderground v.1.15,2013-03-10 22:47:00,
2013-03-10 18:52:00,49.9,47.1,30.25,ENE,67,6.0,7.0,90,0.00,,,0.00,Wunderground v.1.15,2013-03-10 22:52:00,
2013-03-10 18:57:00,49.9,47.1,30.25,ENE,69,5.0,11.0,90,0.00,,,0.00,Wunderground v.1.15,2013-03-10 22:57:00,
2013-03-10 19:02:00,49.8,47.0,30.25,ENE,69,7.0,10.0,90,0.00,,,0.00,Wunderground v.1.15,2013-03-10 23:02:00,
2013-03-10 19:07:00,49.7,46.9,30.25,ENE,76,5.0,11.0,90,0.00,,,0.00,Wunderground v.1.15,2013-03-10 23:07:00,
2013-03-10 19:12:00,49.7,46.9,30.25,ENE,75,5.0,9.0,90,0.00,,,0.00,Wunderground v.1.15,2013-03-10 23:12:00,
2013-03-10 19:17:00,49.7,46.9,30.25,ENE,75,6.0,9.0,90,0.00,,,0.00,Wunderground v.1.15,2013-03-10 23:17:00,
2013-03-10 19:22:00,49.6,46.8,30.25,ENE,74,9.0,9.0,90,0.00,,,0.00,Wunderground v.1.15,2013-03-10 23:22:00,
2013-03-10 19:27:00,49.6,46.8,30.25,ENE,70,10.0,11.0,90,0.00,,,0.00,Wunderground v.1.15,2013-03-10 23:27:00,
2013-03-10 19:32:00,49.6,46.8,30.25,ENE,71,6.0,9.0,90,0.00,,,0.00,Wunderground v.1.15,2013-03-10 23:32:00,
2013-03-10 19:37:00,49.6,46.8,30.25,ENE,73,9.0,12.0,90,0.00,,,0.00,Wunderground v.1.15,2013-03-10 23:37:00,
2013-03-10 19:42:00,49.7,46.9,30.25,ENE,73,6.0,10.0,90,0.00,,,0.00,Wunderground v.1.15,2013-03-10 23:42:00,
2013-03-10 19:47:00,49.7,46.9,30.25,ENE,73,7.0,11.0,90,0.00,,,0.00,Wunderground v.1.15,2013-03-10 23:47:00,
2013-03-10 19:52:00,49.8,47.3,30.25,ENE,72,6.0,10.0,91,0.00,,,0.00,Wunderground v.1.15,2013-03-10 23:52:00,
2013-03-10 19:57:00,49.9,47.4,30.25,ENE,72,4.0,13.0,91,0.00,,,0.00,Wunderground v.1.15,2013-03-10 23:57:00,
2013-03-10 20:02:00,50.0,47.2,30.25,ENE,71,4.0,7.0,90,0.00,,,0.00,Wunderground v.1.15,2013-03-11 00:02:00,
2013-03-10 20:07:00,50.0,47.2,30.25,ENE,73,7.0,10.0,90,0.00,,,0.00,Wunderground v.1.15,2013-03-11 00:07:00,
2013-03-10 20:12:00,50.0,47.2,30.25,ENE,72,5.0,7.0,90,0.00,,,0.00,Wunderground v.1.15,2013-03-11 00:12:00,
2013-03-10 20:17:00,50.0,47.2,30.25,ENE,71,4.0,9.0,90,0.00,,,0.00,Wunderground v.1.15,2013-03-11 00:17:00,
2013-03-10 20:22:00,49.9,47.4,30.25,ENE,70,4.0,7.0,91,0.00,,,0.00,Wunderground v.1.15,2013-03-11 00:22:00,
2013-03-10 20:27:00,49.9,47.4,30.25,ENE,69,4.0,10.0,91,0.00,,,0.00,Wunderground v.1.15,2013-03-11 00:27:00,
2013-03-10 20:32:00,49.8,47.3,30.25,ENE,70,6.0,9.0,91,0.00,,,0.00,Wunderground v.1.15,2013-03-11 00:32:00,
2013-03-10 20:37:00,49.8,47.3,30.25,ENE,69,5.0,9.0,91,0.00,,,0.00,Wunderground v.1.15,2013-03-11 00:37:00,
2013-03-10 20:42:00,49.7,47.2,30.25,ENE,69,6.0,7.0,91,0.00,,,0.00,Wunderground v.1.15,2013-03-11 00:42:00,
2013-03-10 20:47:00,49.7,47.2,30.25,ENE,69,5.0,9.0,91,0.00,,,0.00,Wunderground v.1.15,2013-03-11 00:47:00,
2013-03-10 20:52:00,49.7,47.2,30.25,ENE,69,5.0,9.0,91,0.00,,,0.00,Wunderground v.1.15,2013-03-11 00:52:00,
2013-03-10 20:57:00,49.7,47.2,30.25,ENE,70,6.0,9.0,91,0.00,,,0.00,Wunderground v.1.15,2013-03-11 00:57:00,
2013-03-10 21:02:00,49.7,47.2,30.25,ENE,69,4.0,9.0,91,0.00,,,0.00,Wunderground v.1.15,2013-03-11 01:02:00,
2013-03-10 21:07:00,49.7,47.2,30.25,ENE,69,4.0,9.0,91,0.00,,,0.00,Wunderground v.1.15,2013-03-11 01:07:00,
2013-03-10 21:13:00,49.7,47.2,30.25,ENE,71,3.0,8.0,91,0.00,,,0.00,Wunderground v.1.15,2013-03-11 01:13:00,
2013-03-10 21:18:00,49.6,47.1,30.25,ENE,70,5.0,9.0,91,0.00,,,0.00,Wunderground v.1.15,2013-03-11 01:18:00,
2013-03-10 21:23:00,49.6,47.1,30.25,ENE,69,5.0,8.0,91,0.00,,,0.00,Wunderground v.1.15,2013-03-11 01:23:00,
2013-03-10 21:28:00,49.6,47.4,30.25,ENE,70,5.0,10.0,92,0.00,,,0.00,Wunderground v.1.15,2013-03-11 01:28:00,
2013-03-10 21:33:00,49.6,47.4,30.25,ENE,70,6.0,8.0,92,0.00,,,0.00,Wunderground v.1.15,2013-03-11 01:33:00,
2013-03-10 21:38:00,49.7,47.5,30.25,ENE,68,9.0,9.0,92,0.00,,,0.00,Wunderground v.1.15,2013-03-11 01:38:00,
2013-03-10 21:43:00,49.6,47.4,30.25,ENE,70,5.0,9.0,92,0.00,,,0.00,Wunderground v.1.15,2013-03-11 01:43:00,
2013-03-10 21:48:00,49.5,47.3,30.25,ENE,71,6.0,10.0,92,0.00,,,0.00,Wunderground v.1.15,2013-03-11 01:48:00,
2013-03-10 21:53:00,49.5,47.3,30.25,ENE,69,5.0,7.0,92,0.00,,,0.00,Wunderground v.1.15,2013-03-11 01:53:00,
2013-03-10 21:58:00,49.6,47.4,30.25,ENE,70,8.0,9.0,92,0.00,,,0.00,Wunderground v.1.15,2013-03-11 01:58:00,
2013-03-10 22:03:00,49.6,47.4,30.25,ENE,73,5.0,7.0,92,0.00,,,0.00,Wunderground v.1.15,2013-03-11 02:03:00,
2013-03-10 22:08:00,49.6,47.4,30.26,ENE,73,4.0,9.0,92,0.00,,,0.00,Wunderground v.1.15,2013-03-11 02:08:00,
2013-03-10 22:13:00,49.6,47.4,30.25,ENE,72,9.0,9.0,92,0.00,,,0.00,Wunderground v.1.15,2013-03-11 02:13:00,
2013-03-10 22:19:00,49.5,47.3,30.25,ENE,71,7.0,10.0,92,0.00,,,0.00,Wunderground v.1.15,2013-03-11 02:19:00,
2013-03-10 22:24:00,49.5,47.3,30.25,ENE,70,6.0,7.0,92,0.00,,,0.00,Wunderground v.1.15,2013-03-11 02:24:00,
2013-03-10 22:29:00,49.4,47.2,30.25,ENE,67,5.0,9.0,92,0.00,,,0.00,Wunderground v.1.15,2013-03-11 02:29:00,
2013-03-10 22:34:00,49.4,47.2,30.25,ENE,67,7.0,7.0,92,0.00,,,0.00,Wunderground v.1.15,2013-03-11 02:34:00,
2013-03-10 22:39:00,49.3,47.1,30.25,ENE,69,6.0,8.0,92,0.00,,,0.00,Wunderground v.1.15,2013-03-11 02:39:00,
2013-03-10 22:44:00,49.2,47.0,30.25,ENE,68,6.0,9.0,92,0.00,,,0.00,Wunderground v.1.15,2013-03-11 02:44:00,
2013-03-10 22:49:00,49.2,47.0,30.25,ENE,72,8.0,10.0,92,0.00,,,0.00,Wunderground v.1.15,2013-03-11 02:49:00,
2013-03-10 22:54:00,49.2,47.0,30.24,ENE,70,5.0,9.0,92,0.00,,,0.00,Wunderground v.1.15,2013-03-11 02:54:00,
2013-03-10 22:59:00,49.2,47.0,30.25,ENE,73,6.0,9.0,92,0.00,,,0.00,Wunderground v.1.15,2013-03-11 02:59:00,
2013-03-10 23:04:00,49.2,47.0,30.25,ENE,67,7.0,11.0,92,0.00,,,0.00,Wunderground v.1.15,2013-03-11 03:04:00,
2013-03-10 23:09:00,49.1,46.9,30.25,ENE,67,5.0,11.0,92,0.00,,,0.00,Wunderground v.1.15,2013-03-11 03:09:00,
2013-03-10 23:14:00,49.1,46.9,30.25,ENE,65,5.0,9.0,92,0.00,,,0.00,Wunderground v.1.15,2013-03-11 03:14:00,
2013-03-10 23:19:00,49.0,46.8,30.25,ENE,65,6.0,9.0,92,0.00,,,0.00,Wunderground v.1.15,2013-03-11 03:19:00,
2013-03-10 23:24:00,49.0,46.8,30.25,ENE,66,4.0,7.0,92,0.00,,,0.00,Wunderground v.1.15,2013-03-11 03:24:00,
2013-03-10 23:29:00,49.0,46.8,30.25,ENE,65,7.0,9.0,92,0.00,,,0.00,Wunderground v.1.15,2013-03-11 03:29:00,
2013-03-10 23:34:00,49.0,46.8,30.25,ENE,65,3.0,10.0,92,0.00,,,0.00,Wunderground v.1.15,2013-03-11 03:34:00,
2013-03-10 23:39:00,48.9,46.7,30.25,ENE,63,4.0,10.0,92,0.00,,,0.00,Wunderground v.1.15,2013-03-11 03:39:00,
2013-03-10 23:44:00,48.9,46.7,30.25,ENE,61,4.0,11.0,92,0.00,,,0.00,Wunderground v.1.15,2013-03-11 03:44:00,
2013-03-10 23:49:00,48.9,46.7,30.25,ENE,60,4.0,11.0,92,0.00,,,0.00,Wunderground v.1.15,2013-03-11 03:49:00,
2013-03-10 23:54:00,48.9,47.0,30.25,ENE,60,6.0,9.0,93,0.00,,,0.00,Wunderground v.1.15,2013-03-11 03:54:00,
2013-03-10 23:59:00,48.9,47.0,30.25,ENE,59,8.0,9.0,93,0.00,,,0.00,Wunderground v.1.15,2013-03-11 03:59:00,